{"data":{"norad_id":54157,"epoch":"2026-05-25T02:26:47.427648Z","epoch_age_seconds":76670,"freshness":"FRESH","line1":"1 54157U 22141A   26145.10193782 -.00001508  00000+0 -76704-4 0  9994","line2":"2 54157  53.2159  31.0403 0001356  88.1801 271.9346 15.08833869197258","mean_motion":15.08833869,"eccentricity":0.0001356,"inclination_deg":53.2159,"raan_deg":31.0403,"arg_perigee_deg":88.1801,"mean_anomaly_deg":271.9346,"bstar":-7.6704e-5,"rev_number":19725,"period_min":95.437942479007,"perigee_km":538.82406191992,"apogee_km":540.70019616371,"semimajor_km":6917.8991290418,"source":"CELESTRAK","updated_at":"2026-05-25T13:38:17.658858Z"}}